Home   Weather   Passaic   Past weeks

Flag for USA Past Weather in Passaic, New Jersey, USA — Yesterday and Last 2 Weeks

Now
43 °F

Overcast.


Feels Like: 37 °F
Forecast: 34 / 44 °F
Wind: 10 mph from Northwest

Location: Teterboro Airport

Current Time: Dec 3, 2016 at 11:00:58 pm

Latest Report: Dec 3, 2016 at 9:51 pm


Visibility: 10 mi

Pressure: 30.13 "Hg

Humidity: 51%

Dew Point: 26 °F

Location of PassaicLocation

Past Weather in Passaic — Graph

°F

Passaic Temperature Yesterday

Maximum temperature yesterday: 51 °F (at 12:51 pm)
Minimum temperature yesterday: 38 °F (at 4:51 am)
Average temperature yesterday: 45 °F

High & Low Weather Summary for the Past Weeks

 TemperatureHumidityPressure
High64 °F (Nov 19, 12:51 pm)93% (Nov 26, 12:51 am)30.32 "Hg (Nov 26, 12:51 am)
Low30 °F (Nov 28, 5:51 am)35% (Nov 23, 1:51 pm)29.46 "Hg (Dec 1, 2:51 am)
Average45 °F63%29.96 "Hg
* Reported Nov 18 8:51 pm — Dec 3 8:51 pm, Passaic, Weather by CustomWeather, © 2016

Note: Actual official high and low records may vary slightly from our data, if they occured in-between our weather recording intervals... More about our weather records

Advertising

Passaic Weather History for the Previous 24 Hours

Scroll right to see more
 ConditionsComfort  
Time TempWeatherWind HumidityBarometerVisibility
8:51 pm
Sat, Dec 3
43 °FOvercast.14 mph53%30.11 "Hg10 mi
7:51 pm43 °FOvercast.12 mph53%30.10 "Hg10 mi
6:51 pm44 °FPassing clouds.10 mph51%30.11 "Hg10 mi
5:51 pm45 °FPassing clouds.9 mph49%30.10 "Hg10 mi
4:51 pm45 °FOvercast.12 mph49%30.09 "Hg10 mi
3:51 pm45 °FSunny.14 mph48%30.07 "Hg10 mi
2:51 pm47 °FPartly sunny.14 mph44%30.03 "Hg10 mi
1:51 pm47 °FPassing clouds.20 mph42%30.02 "Hg10 mi
12:51 pm47 °FSunny.17 mph44%30.03 "Hg10 mi
11:51 am46 °FSunny.15 mph46%30.03 "Hg10 mi
10:51 am45 °FPassing clouds.16 mph45%30.02 "Hg10 mi
9:51 am45 °FPassing clouds.20 mph45%30.03 "Hg10 mi
8:51 am43 °FOvercast.15 mph49%30.02 "Hg10 mi
7:51 am42 °FSunny.17 mph51%30.00 "Hg10 mi
6:51 am42 °FClear.17 mph51%29.97 "Hg10 mi
5:51 am42 °FOvercast.15 mph51%29.95 "Hg10 mi
4:51 am42 °FPassing clouds.16 mph53%29.94 "Hg10 mi
3:51 am42 °FClear.12 mph55%29.93 "Hg10 mi
2:51 am44 °FPassing clouds.17 mph51%29.93 "Hg10 mi
1:51 am44 °FOvercast.9 mph55%29.92 "Hg10 mi
12:51 am45 °FMostly cloudy.13 mph53%29.90 "Hg10 mi
11:51 pm
Fri, Dec 2
45 °FOvercast.12 mph53%29.90 "Hg10 mi
Weather by CustomWeather, © 2016

See weather overviewHow to use our weather pages